This is the latest recevied weather packets stored in our database for station/object K2BIG. If no packets are shown the sender has not sent any weather packets the latest 10 day(s).
| Time | Temp. | Humidity | Pressure | Rain* | Wind** | Luminosity | Snow |
|---|---|---|---|---|---|---|---|
| 1777757115 | 15° C | 39% | 1010 hPa | 0 mm | - | - | - |
| 1777756815 | 15° C | 38% | 1009.9 hPa | 0 mm | - | - | - |
| 1777756515 | 15.56° C | 37% | 1009.9 hPa | 0 mm | - | - | - |
| 1777756215 | 15.56° C | 38% | 1009.8 hPa | 0 mm | - | - | - |
| 1777755915 | 15.56° C | 38% | 1009.9 hPa | 0 mm | - | - | - |
| 1777755615 | 15.56° C | 40% | 1009.9 hPa | 0 mm | - | - | - |
| 1777755315 | 15.56° C | 40% | 1009.8 hPa | 0 mm | - | - | - |
| 1777755015 | 16.11° C | 42% | 1009.8 hPa | 0 mm | - | - | - |
| 1777754715 | 16.11° C | 38% | 1009.8 hPa | 0 mm | - | - | - |
| 1777754415 | 16.67° C | 37% | 1009.8 hPa | 0 mm | - | - | - |
| 1777754115 | 17.22° C | 34% | 1009.8 hPa | 0 mm | - | - | - |
| 1777753815 | 17.22° C | 37% | 1009.9 hPa | 0 mm | - | - | - |
| 1777753515 | 16.67° C | 38% | 1009.9 hPa | 0 mm | - | - | - |
| 1777753215 | 16.67° C | 43% | 1009.9 hPa | 0 mm | - | - | - |
| 1777752915 | 16.11° C | 40% | 1010 hPa | 0 mm | - | - | - |
| 1777752615 | 16.11° C | 39% | 1010.1 hPa | 0 mm | - | - | - |
| 1777752315 | 16.11° C | 39% | 1010 hPa | 0 mm | - | - | - |
| 1777752015 | 16.11° C | 41% | 1010.1 hPa | 0 mm | - | - | - |
| 1777751715 | 15.56° C | 41% | 1010.1 hPa | 0 mm | - | - | - |
| 1777751415 | 16.11° C | 42% | 1010.2 hPa | 0 mm | - | - | - |
| 1777751115 | 16.11° C | 40% | 1010.3 hPa | 0 mm | - | - | - |
| 1777750815 | 16.11° C | 39% | 1010.3 hPa | 0 mm | - | - | - |
| 1777750515 | 16.11° C | 40% | 1010.3 hPa | 0 mm | - | - | - |
| 1777750215 | 16.11° C | 40% | 1010.4 hPa | 0 mm | - | - | - |
| 1777749915 | 16.11° C | 41% | 1010.5 hPa | 0 mm | - | - | - |
* Rain latest hour (hover to see other rain measurements)
** Current wind speed in m/s (hover to see current wind gust speed)